Regional Weather Roundup
Issued by NWS Goodland, KS

Home | Current Version | Previous Version | Text Only | Print | Product List | Glossary On
Versions: 1 2 3 4 5 6 7 8 9 10 11 12 13 14 15 16 17 18 19 20 21 22 23 24 25 26 27 28 29 30 31 32 33 34 35 36 37 38 39 40 41 42 43 44 45 46 47 48 49 50
000
ASUS43 KGLD 051908
RWRGLD

GOODLAND FORECAST AREA HOURLY WEATHER ROUNDUP
NATIONAL WEATHER SERVICE GOODLAND KS
1200 PM MST MON DEC 05 2016

...OFFICIAL OBSERVATIONS...

CITY           SKY/WX    TMP DP  RH WIND       PRES   REMARKS
GOODLAND KS    SUNNY     61  17  18 NE15      29.55F
HILL CITY KS   SUNNY     49  27  42 VRB3      29.58F
IMPERIAL NEB   PTSUNNY   51  21  30 NW7       29.56F
MCCOOK NEB     MOSUNNY   50  22  33 VRB6      29.56F
AKRON CO       PTSUNNY   54  19  25 NW16G22   29.59F
BURLINGTON CO  MOSUNNY   59  16  18 E14       29.56F
LIMON CO       SUNNY     57  18  21 NW15G26   29.60F
$$

...UNOFFICIAL OBSERVATIONS...

CITY           SKY/WX    TMP DP  RH WIND       PRES   REMARKS
COLBY KS       SUNNY     61  27  27 NE16G24   29.55S
LENORA KS        N/A     48  32  54 MISG        N/A
NORTON KS      SUNNY     50  21  32 NE6       29.57F
SHARON SPRINGS   N/A     63  20  19 NE8         N/A
TRIBUNE KS     SUNNY     63  23  22 SW15      29.54
TRENTON NEB      N/A     49  32  52 CALM        N/A
KIT CARSON CO    N/A     61  23  23 MISG        N/A
YUMA CO        PTSUNNY   50  23  34 NW3       29.58F
$$




USA.gov is the U.S. government's official web portal to all federal, state and local government web resources and services.